Regional Weather Roundup
Issued by NWS

Home | Current Version | Previous Version | Text Only | Print | Product List | Glossary Off
Versions: 1 2 3 4 5 6 7 8 9 10 11 12 13 14 15 16 17 18 19 20 21 22 23 24 25 26 27 28 29 30 31 32 33 34 35 36 37 38 39 40 41 42 43 44 45 46 47 48 49 50

000
ASUS44 KMEG 042110
RWRTN
TENNESSEE HOURLY STATE WEATHER ROUNDUP
NATIONAL WEATHER SERVICE MEMPHIS TN
400 PM CDT SAT JUL 04 2015

TNZ002-004-019-021-049-052-054-088>092-042200-
WEST TENNESSEE

CITY           SKY/WX    TMP DP  RH WIND       PRES   REMARKS
MEMPHIS INTL   CLOUDY    77  69  76 W6        29.96F
NWS MEMPHIS      N/A     76 N/A N/A MISG        N/A
JACKSON        CLOUDY    76  70  82 W6        29.97F
DYERSBURG        N/A    N/A N/A N/A MISG        N/A
PARIS          MOSUNNY   77  70  78 N3        29.97F
LEXINGTON      MOSUNNY   75  70  83 SW5       29.96F
$$

TNZ008-025-027-028-033-062-065-066-042200-
NORTH MIDDLE TENNESSEE

CITY           SKY/WX    TMP DP  RH WIND       PRES   REMARKS
NASHVILLE      CLOUDY    78  71  79 CALM      29.98F
CLARKSVILLE    CLOUDY    80  69  69 N7        29.96F
SMYRNA         CLOUDY    77  72  83 CALM      29.99F
COOKEVILLE     PTSUNNY   81  73  78 SW5       30.00F
CROSSVILLE     CLOUDY    75  66  73 SW7       30.06S
$$

TNZ061-075-076-078-094-096-097-042200-
SOUTH MIDDLE TENNESSEE

CITY           SKY/WX    TMP DP  RH WIND       PRES   REMARKS
FAYETTEVILLE     N/A     79  66  65 W7        30.01S
TULLAHOMA      PTSUNNY   75  66  73 S3        30.03S
WINCHESTER     PTSUNNY   81  70  69 S5        30.01F
MCMINNVILLE    MOSUNNY   81  73  78 VRB6      30.01F
COLUMBIA       PTSUNNY   75  72  88 CALM      29.97S
SHELBYVILLE    PTSUNNY   82  73  74 CALM        N/A
$$

TNZ017-018-042-046-047-042200-
NORTHEAST TENNESSEE

CITY           SKY/WX    TMP DP  RH WIND       PRES   REMARKS
TRI CITIES     PTSUNNY   79  66  64 SW14      30.02F
ELIZABETHTON   PTCLDY    75  66  73 SW8       30.03F
$$

TNZ012-013-036-069-073-074-042200-
CENTRAL EAST TENNESSEE

CITY           SKY/WX    TMP DP  RH WIND       PRES   REMARKS
KNOXVILLE      CLOUDY    77  67  71 SW14      30.01F
OAK RIDGE      LGT RAIN  77  68  73 CALM      30.03R
GATLINBURG     CLEAR     77  66  69 SW9       30.01F
MORRISTOWN     CLEAR     79  70  73 SW12      30.03S
$$

TNZ083-085-099-042200-
SOUTHEAST TENNESSEE

CITY           SKY/WX    TMP DP  RH WIND       PRES   REMARKS
CHATTANOOGA    CLOUDY    81  66  60 SW7       30.02S
$$

SKY/WX REPORTED AS FAIR MEANS FEW OR NO CLOUDS BELOW
12 THOUSAND FEET.



USA.gov is the U.S. government's official web portal to all federal, state and local government web resources and services.